| time (UTC) | temp C | wind direction | speed KPH | gust KPH | rain 1hr cm | rain 24hr cm | rain mn cm | humidity % | barometer mb |
| 20260505010445 | 12 | 323 | 0.0 | 4.8 | 0.00 | 0.41 | 0.00 | 96 | 1012.1 |
| 20260505002238 | 12 | 300 | 0.0 | 3.2 | 0.00 | 0.41 | 0.00 | 96 | 1012.1 |
| 20260504234647 | 12 | 23 | 0.0 | 4.8 | 0.00 | 0.41 | 0.00 | 96 | 1012.3 |
| 20260504231249 | 12 | 31 | 0.0 | 1.6 | 0.00 | 0.41 | 0.00 | 96 | 1012.3 |
| 20260504224703 | 13 | 325 | 0.0 | 3.2 | 0.00 | 0.41 | 0.00 | 96 | 1012.6 |
| 20260504222343 | 12 | 148 | 0.0 | 1.6 | 0.00 | 0.43 | 0.00 | 96 | 1012.5 |
| 20260504220242 | 12 | 148 | 0.0 | 0.0 | 0.00 | 0.48 | 0.00 | 96 | 1012.6 |
| 20260504214535 | 12 | 148 | 0.0 | 0.0 | 0.00 | 0.53 | 0.48 | 96 | 1012.7 |
| 20260504213023 | 13 | 148 | 0.0 | 0.0 | 0.00 | 0.53 | 0.48 | 96 | 1012.9 |
| 20260504211522 | 13 | 148 | 0.0 | 0.0 | 0.00 | 0.56 | 0.48 | 96 | 1013.0 |
| 20260504210110 | 13 | 148 | 0.0 | 0.0 | 0.00 | 0.61 | 0.48 | 95 | 1013.1 |
| 20260504204515 | 13 | 148 | 0.0 | 0.0 | 0.00 | 0.66 | 0.48 | 95 | 1013.2 |
| 20260504203020 | 13 | 148 | 0.0 | 0.0 | 0.00 | 0.71 | 0.48 | 95 | 1013.3 |
| 20260504201504 | 13 | 148 | 0.0 | 0.0 | 0.00 | 0.74 | 0.48 | 95 | 1013.2 |
| 20260504200014 | 13 | 148 | 0.0 | 0.0 | 0.00 | 0.76 | 0.48 | 95 | 1013.1 |
| 20260504194512 | 13 | 148 | 0.0 | 0.0 | 0.00 | 0.76 | 0.46 | 95 | 1012.9 |
| 20260504193027 | 13 | 148 | 0.0 | 0.0 | 0.00 | 0.79 | 0.46 | 95 | 1012.9 |
| 20260504191506 | 13 | 148 | 0.0 | 0.0 | 0.00 | 0.81 | 0.46 | 94 | 1012.8 |
| 20260504190004 | 13 | 148 | 0.0 | 0.0 | 0.00 | 0.84 | 0.46 | 94 | 1012.8 |
| 20260504184513 | 13 | 148 | 0.0 | 0.0 | 0.00 | 0.84 | 0.46 | 94 | 1012.7 |
| 20260504183029 | 13 | 148 | 0.0 | 0.0 | 0.00 | 0.84 | 0.46 | 93 | 1012.7 |
| 20260504181525 | 14 | 148 | 0.0 | 0.0 | 0.00 | 0.84 | 0.46 | 93 | 1012.6 |
| 20260504180004 | 14 | 148 | 0.0 | 1.6 | 0.00 | 0.86 | 0.46 | 93 | 1012.6 |
| 20260504174503 | 14 | 148 | 0.0 | 1.6 | 0.00 | 0.91 | 0.46 | 93 | 1012.7 |
| 20260504173007 | 14 | 150 | 0.0 | 8.0 | 0.00 | 1.04 | 0.46 | 92 | 1012.7 |
| 20260504171516 | 15 | 175 | 0.0 | 1.6 | 0.00 | 1.09 | 0.46 | 94 | 1012.7 |
| 20260504081507 | 13 | 169 | 0.0 | 6.4 | 0.00 | 1.45 | 0.08 | 97 | 1014.3 |
| 20260504050023 | 11 | 254 | 0.0 | 0.0 | 0.00 | 1.45 | 0.08 | 97 | 1013.0 |